Regional Weather Roundup
Issued by NWS

Home | Current Version | Previous Version | Text Only | Print | Product List | Glossary On
Versions: 1 2 3 4 5 6 7 8 9 10 11 12 13 14 15 16 17 18 19 20 21 22 23 24 25 26 27 28 29 30 31 32 33 34 35 36 37 38 39 40 41 42 43 44 45 46 47 48 49 50
000
ASUS44 KBMX 281410
RWRAL

ALABAMA REGIONAL WEATHER ROUNDUP
NATIONAL WEATHER SERVICE BIRMINGHAM AL
900 AM CDT FRI AUG 28 2015

NOTE: "FAIR" INDICATES FEW OR NO CLOUDS BELOW 12,000 FEET
WITH NO SIGNIFICANT WEATHER AND/OR OBSTRUCTIONS TO VISIBILITY.

THE REMARK "TC" DENOTES TEMPERATURE IN DEGREES CELSIUS.

ALZ001>011-014-016>018-020-281500-
NORTH ALABAMA

CITY           SKY/WX    TMP DP  RH WIND       PRES   REMARKS
MUSCLE SHOALS  SUNNY     73  65  75 SE5       30.13R
HUNTSVILLE     MOSUNNY   75  65  70 SE6       30.13R
DECATUR        SUNNY     74  66  76 E5        30.13R
HALEYVILLE     FAIR      74  68  81 CALM      30.15R
GADSDEN        CLOUDY    72  63  73 NE9       30.13R
$$

ALZ012-013-022-023-030>036-040>044-281500-
WEST CENTRAL ALABAMA

CITY           SKY/WX    TMP DP  RH WIND       PRES   REMARKS
TUSCALOOSA     MOSUNNY   78  68  71 E7        30.07R
$$

ALZ015-024>027-033>036-040>044-281500-
CENTRAL ALABAMA

CITY           SKY/WX    TMP DP  RH WIND       PRES   REMARKS
BIRMINGHAM     MOSUNNY   74  67  78 NE6       30.12R
MONTGOMERY     SUNNY     80  69  69 E9        30.06R
SHELBY CO ARPT PTSUNNY   75  68  78 VRB6      30.10R
MAXWELL AFB    SUNNY     79  70  73 E8        30.06R
GREENVILLE     FAIR      78  69  73 E7        30.04S
$$

ALZ019-021-028-029-037-038-045>048-281500-
EAST CENTRAL ALABAMA

CITY           SKY/WX    TMP DP  RH WIND       PRES   REMARKS
ANNISTON       PTSUNNY   75  68  78 VRB7      30.13R
ALEXANDER CITY CLOUDY    74  71  88 E6        30.11R
AUBURN         CLOUDY    76  72  87 E9        30.11R
$$

ALZ051>064-281500-
SOUTHWEST ALABAMA

CITY           SKY/WX    TMP DP  RH WIND       PRES   REMARKS
MOBILE         MOSUNNY   76  66  71 E5        30.02R
BROOKLEY FIELD SUNNY     78  67  68 N6        30.03R
EVERGREEN      SUNNY     78  69  73 E6        30.04R
$$

ALZ049-050-065>069-281500-
SOUTHEAST ALABAMA

CITY           SKY/WX    TMP DP  RH WIND       PRES   REMARKS
DOTHAN         MOSUNNY   78  70  76 E8        30.08R
OZARK          PTSUNNY   80  72  76 E6        30.04R
TROY           MOSUNNY   80  71  74 E9        30.06R
EUFAULA        CLOUDY    79  73  82 E6        30.06S
$$


USA.gov is the U.S. government's official web portal to all federal, state and local government web resources and services.